This is the latest recevied weather packets stored in our database for station/object K2ATL. If no packets are shown the sender has not sent any weather packets the latest 10 day(s).
| Time | Temp. | Humidity | Pressure | Rain* | Wind** | Luminosity | Snow |
|---|---|---|---|---|---|---|---|
| 1788126181 | 30° C | 59% | 1106.4 hPa | 0 mm | - | 399 W/m² | - |
| 1788125880 | 30° C | 60% | 1106.4 hPa | 0 mm | - | 416 W/m² | - |
| 1788125575 | 28.89° C | 63% | 1106.2 hPa | 0 mm | - | 437 W/m² | - |
| 1788125271 | 29.44° C | 64% | 1106.3 hPa | 0 mm | - | 469 W/m² | - |
| 1788124967 | 30.56° C | 60% | 1106.2 hPa | 0 mm | - | 473 W/m² | - |
| 1788124666 | 28.33° C | 64% | 1106.3 hPa | 0 mm | - | 515 W/m² | - |
| 1788124365 | 29.44° C | 61% | 1106.3 hPa | 0 mm | - | 522 W/m² | - |
| 1788124061 | 30° C | 62% | 1106.4 hPa | 0 mm | - | 567 W/m² | - |
| 1788123760 | 28.89° C | 64% | 1106.5 hPa | 0 mm | - | 575 W/m² | - |
| 1788123458 | 30° C | 63% | 1106.4 hPa | 0 mm | - | 577 W/m² | - |
| 1788123153 | 29.44° C | 64% | 1106.5 hPa | 0 mm | - | 590 W/m² | - |
| 1788122848 | 27.78° C | 63% | 1106.6 hPa | 0 mm | - | 606 W/m² | - |
| 1788122547 | 30° C | 63% | 1106.5 hPa | 0 mm | - | 360 W/m² | - |
| 1788122243 | 29.44° C | 66% | 1106.6 hPa | 0 mm | - | 667 W/m² | - |
| 1788121939 | 28.89° C | 58% | 1106.5 hPa | 0 mm | - | 732 W/m² | - |
| 1788121638 | 29.44° C | 60% | 1106.5 hPa | 0 mm | - | 718 W/m² | - |
| 1788121334 | 28.33° C | 59% | 1106.7 hPa | 0 mm | - | 725 W/m² | - |
| 1788121027 | 30° C | 57% | 1106.7 hPa | 0 mm | - | 731 W/m² | - |
| 1788120723 | 28.89° C | 57% | 1106.7 hPa | 0 mm | - | 734 W/m² | - |
| 1788120418 | 28.89° C | 60% | 1106.6 hPa | 0 mm | - | 767 W/m² | - |
| 1788120117 | 30.56° C | 58% | 1106.8 hPa | 0 mm | - | 794 W/m² | - |
| 1788119813 | 30° C | 57% | 1106.9 hPa | 0 mm | - | 806 W/m² | - |
| 1788119511 | 31.11° C | 57% | 1106.9 hPa | 0 mm | - | 801 W/m² | - |
| 1788119209 | 30.56° C | 55% | 1106.8 hPa | 0 mm | - | 805 W/m² | - |
| 1788118904 | 30.56° C | 57% | 1107 hPa | 0 mm | - | 812 W/m² | - |
* Rain latest hour (hover to see other rain measurements)
** Current wind speed in m/s (hover to see current wind gust speed)